Weather History for Bierset, Belgium

Change the Weather History Date:

Monday, November 19, 2012

  Actual Average Record
Temperature  
Mean Temperature 45 °F -  
Max Temperature 55 °F 42 °F 55 °F (2011)
Min Temperature 35 °F 34 °F 28 °F (1998)
Degree Days  
Heating Degree Days 20    
Moisture  
Dew Point 43 °F    
Average Humidity 89    
Maximum Humidity 100    
Minimum Humidity 72    
Precipitation  
Precipitation 0.00 in - - ()
Sea Level Pressure  
Sea Level Pressure 29.99 in    
Wind  
Wind Speed 6 mph ()    
Max Wind Speed 13 mph    
Max Gust Speed -    
Visibility 3.6 miles    
Events Fog , Rain    
Averages and records for this station are not official NWS values.
T = Trace of Precipitation, MM = Missing Value Source: Averaged Metar Reports

Daily Weather History Graph

Daily Weather History Graph

Search for Another Location

Airport:

Trip Planner

Search our weather history database for the weather conditions in past years. The results will help you decide how hot, cold, wet, or windy it might be!

Date:

Astronomy

Nov. 19, 2012 Rise Set
Actual Time 8:00 AM CET 4:46 PM CET
Civil Twilight 7:23 AM CET 5:23 PM CET
Nautical Twilight 6:43 AM CET 6:03 PM CET
Astronomical Twilight 6:04 AM CET 6:42 PM CET
Moon 12:41 PM CET (11/19) 11:11 PM CET (11/19)
Length of Visible Light 9h 59m
Length of Day
8h 46m
Waxing Crescent, 38% of the Moon is Illuminated
Nov 19
Waxing Crescent
Nov 20
First Quarter
Nov 28
Full
Dec 6
Last Quarter
Dec 13
New

Hourly Weather History & Observations

Time (CET) Temp. Windchill Dew Point Humidity Pressure Visibility Wind Dir Wind Speed Gust Speed Precip Events Conditions
12:20 AM 39.2 °F 37.0 °F 39.2 °F 100% 30.04 in 0.1 mi NE 3.5 mph - N/A Fog Fog
12:50 AM 41.0 °F 38.0 °F 39.2 °F 93% 30.04 in 0.2 mi East 4.6 mph - N/A Fog Fog
1:00 AM 41 °F - 40 °F 92% 30.06 in 0 mi East 4.5 mph - - Fog Partial Fog
1:20 AM 41.0 °F 39.0 °F 39.2 °F 93% 30.01 in 0.2 mi ESE 3.5 mph - N/A Fog Patches of Fog
1:50 AM 39.2 °F 37.0 °F 39.2 °F 100% 30.01 in 0.1 mi ESE 3.5 mph - N/A Fog Patches of Fog
2:20 AM 39.2 °F 35.9 °F 39.2 °F 100% 30.01 in 0.1 mi ESE 4.6 mph - N/A Fog Fog
2:50 AM 39.2 °F - 37.4 °F 93% 30.01 in 0.2 mi Variable 1.2 mph - N/A Fog Fog
3:20 AM 37.4 °F 34.9 °F 37.4 °F 100% 30.01 in 0.1 mi ESE 3.5 mph - N/A Fog Fog
3:50 AM 35.6 °F - 35.6 °F 100% 30.01 in 0.1 mi SSE 2.3 mph - N/A Fog Light Fog
4:00 AM 36 °F - 36 °F 100% 30.04 in 0 mi SSE 2.2 mph - - Rain Light Drizzle
4:20 AM 35.6 °F 31.7 °F 35.6 °F 100% 30.01 in 0.1 mi South 4.6 mph - N/A Fog Light Fog
4:50 AM 37.4 °F 33.8 °F 37.4 °F 100% 30.01 in 0.1 mi SE 4.6 mph - N/A Fog Light Fog
5:20 AM 37.4 °F 32.8 °F 37.4 °F 100% 30.01 in 0.1 mi SE 5.8 mph - N/A Fog Fog
5:50 AM 37.4 °F 32.1 °F 37.4 °F 100% 29.98 in 0.1 mi SE 6.9 mph - N/A Fog Fog
6:20 AM 39.2 °F 34.2 °F 37.4 °F 93% 29.98 in 0.7 mi SE 6.9 mph - N/A   Mostly Cloudy
6:50 AM 39.2 °F 34.2 °F 37.4 °F 93% 29.98 in 1.2 mi ESE 6.9 mph - N/A   Mostly Cloudy
7:00 AM 40 °F - 38 °F 92% 30.02 in 1 mi ESE 6.7 mph - - Fog Light Fog
7:20 AM 41.0 °F 36.4 °F 39.2 °F 93% 29.98 in - SE 6.9 mph - N/A   Mostly Cloudy
7:50 AM 41.0 °F 36.4 °F 39.2 °F 93% 29.98 in - SE 6.9 mph - N/A   Mostly Cloudy
8:20 AM 42.8 °F 39.3 °F 41.0 °F 93% 29.98 in 3.1 mi SE 5.8 mph - N/A   Mostly Cloudy
8:50 AM 42.8 °F 38.6 °F 41.0 °F 93% 29.98 in 3.1 mi SE 6.9 mph - N/A   Mostly Cloudy
9:20 AM 42.8 °F 39.3 °F 41.0 °F 93% 29.98 in - SE 5.8 mph - N/A   Mostly Cloudy
9:50 AM 44.6 °F 43.1 °F 41.0 °F 87% 29.98 in 3.1 mi SSE 3.5 mph - N/A   Mostly Cloudy
10:00 AM 44 °F - 42 °F 89% 30.02 in 3 mi SSE 4.5 mph - -   Mist
10:20 AM 44.6 °F 43.1 °F 42.8 °F 93% 29.98 in 3.1 mi SE 3.5 mph - N/A   Mostly Cloudy
10:50 AM 46.4 °F 44.3 °F 42.8 °F 87% 29.98 in 3.7 mi SE 4.6 mph - N/A   Mostly Cloudy
11:20 AM 46.4 °F 42.9 °F 44.6 °F 93% 29.98 in 4.3 mi SSE 6.9 mph - N/A   Mostly Cloudy
11:50 AM 48.2 °F - 44.6 °F 87% 29.98 in 5.6 mi SSE 9.2 mph - N/A   Scattered Clouds
12:20 PM 51.8 °F - 46.4 °F 82% 29.98 in 6.2 mi SSE 8.1 mph - N/A   Scattered Clouds
12:50 PM 53.6 °F - 48.2 °F 82% 29.95 in 6.2 mi South 11.5 mph - N/A   Partly Cloudy
1:00 PM 54 °F - 48 °F 72% 29.97 in 9 mi South 11.2 mph - -   Scattered Clouds
1:20 PM 53.6 °F - 48.2 °F 82% 29.95 in 6.2 mi South 9.2 mph - N/A   Scattered Clouds
1:50 PM 53.6 °F - 48.2 °F 82% 29.95 in 6.2 mi South 11.5 mph - N/A   Partly Cloudy
2:20 PM 55.4 °F - 48.2 °F 77% 29.98 in 6.2 mi South 8.1 mph - N/A   Mostly Cloudy
2:50 PM 53.6 °F - 48.2 °F 82% 29.95 in 6.2 mi South 8.1 mph - N/A   Mostly Cloudy
3:20 PM 55.4 °F - 48.2 °F 77% 29.98 in 6.2 mi South 8.1 mph - N/A   Scattered Clouds
3:50 PM 53.6 °F - 48.2 °F 82% 29.98 in 6.2 mi South 9.2 mph - N/A   Partly Cloudy
4:00 PM 54 °F - 47 °F 72% 29.98 in 9 mi South 8.9 mph - -   Scattered Clouds
4:20 PM 51.8 °F - 46.4 °F 82% 29.98 in 6.2 mi SSE 8.1 mph - N/A   Partly Cloudy
4:50 PM 51.8 °F - 46.4 °F 82% 29.98 in - South 9.2 mph - N/A   Clear
5:20 PM 50.0 °F - 46.4 °F 87% 29.98 in - South 10.4 mph - N/A   Clear
5:50 PM 50.0 °F - 44.6 °F 82% 29.98 in 5.6 mi South 10.4 mph - N/A   Unknown
6:20 PM 48.2 °F - 44.6 °F 87% 29.98 in 5.0 mi SSE 11.5 mph - N/A   Unknown
6:50 PM 48.2 °F - 44.6 °F 87% 29.98 in 5.0 mi SSE 10.4 mph - N/A   Unknown
7:00 PM 49 °F - 45 °F 81% 30.01 in 5 mi SSE 11.2 mph - -   Clear
7:20 PM 48.2 °F - 44.6 °F 87% 29.98 in 5.0 mi SSE 11.5 mph - N/A   Unknown
7:50 PM 48.2 °F - 44.6 °F 87% 29.98 in 5.0 mi SSE 11.5 mph - N/A   Unknown
8:20 PM 48.2 °F - 44.6 °F 87% 30.01 in 5.0 mi SSE 12.7 mph - N/A   Unknown
8:50 PM 48.2 °F - 44.6 °F 87% 30.01 in 5.0 mi SSE 10.4 mph - N/A   Unknown
9:20 PM 46.4 °F 41.9 °F 44.6 °F 93% 30.01 in 5.0 mi South 9.2 mph - N/A   Unknown
9:50 PM 46.4 °F 42.4 °F 44.6 °F 93% 30.01 in 5.0 mi South 8.1 mph - N/A   Unknown
10:00 PM 47 °F - 44 °F 85% 30.02 in 5 mi South 6.7 mph - -   Clear
10:20 PM 46.4 °F 42.9 °F 42.8 °F 87% 30.01 in 5.0 mi South 6.9 mph - N/A   Unknown
10:50 PM 46.4 °F 42.9 °F 42.8 °F 87% 30.01 in 5.0 mi South 6.9 mph - N/A   Unknown
11:20 PM 46.4 °F 42.4 °F 42.8 °F 87% 30.01 in 5.0 mi South 8.1 mph - N/A   Unknown
11:50 PM 46.4 °F 41.9 °F 42.8 °F 87% 30.01 in 5.0 mi SSE 9.2 mph - N/A   Unknown